This is the latest recevied weather packets stored in our database for station/object XE2VP-WX. If no packets are shown the sender has not sent any weather packets the latest 1 day(s).
| Time | Temp. | Humidity | Pressure | Rain* | Wind** | Luminosity | Snow |
|---|---|---|---|---|---|---|---|
| 1777984750 | 21.11° C | 70% | 939.6 hPa | 0 mm | 0.45 m/s, 255° | 39 W/m² | - |
| 1777984690 | 21.11° C | 69% | 939.6 hPa | 0 mm | 0.45 m/s, 286° | 37 W/m² | - |
| 1777984630 | 21.11° C | 70% | 939.5 hPa | 0 mm | 0 m/s | 40 W/m² | - |
| 1777984570 | 21.11° C | 70% | 939.5 hPa | 0 mm | 0 m/s | 41 W/m² | - |
| 1777984510 | 21.67° C | 69% | 939.5 hPa | 0 mm | 0.45 m/s, 195° | 38 W/m² | - |
| 1777984450 | 21.67° C | 69% | 939.5 hPa | 0 mm | 0.45 m/s, 221° | 34 W/m² | - |
| 1777984390 | 21.67° C | 69% | 939.5 hPa | 0 mm | 0.45 m/s, 0° | 32 W/m² | - |
| 1777984330 | 21.67° C | 69% | 939.4 hPa | 0 mm | 0.45 m/s, 0° | 26 W/m² | - |
| 1777984270 | 21.67° C | 69% | 939.4 hPa | 0 mm | 0.45 m/s, 0° | 26 W/m² | - |
| 1777984210 | 21.67° C | 69% | 939.4 hPa | 0 mm | 0.45 m/s, 292° | 23 W/m² | - |
| 1777984149 | 21.67° C | 68% | 939.4 hPa | 0 mm | 0.45 m/s, 302° | 21 W/m² | - |
| 1777984090 | 21.67° C | 68% | 939.4 hPa | 0 mm | 0.45 m/s, 237° | 19 W/m² | - |
| 1777984030 | 21.67° C | 68% | 939.4 hPa | 0 mm | 0.45 m/s, 262° | 18 W/m² | - |
| 1777983970 | 21.67° C | 68% | 939.4 hPa | 0 mm | 0.45 m/s, 251° | 17 W/m² | - |
| 1777983910 | 21.67° C | 68% | 939.4 hPa | 0 mm | 0.45 m/s, 280° | 16 W/m² | - |
| 1777983850 | 21.67° C | 68% | 939.3 hPa | 0 mm | 0.45 m/s, 267° | 15 W/m² | - |
| 1777983790 | 21.67° C | 68% | 939.3 hPa | 0 mm | 0.45 m/s, 0° | 13 W/m² | - |
| 1777983730 | 21.67° C | 68% | 939.3 hPa | 0 mm | 0.45 m/s, 283° | 13 W/m² | - |
| 1777983670 | 21.67° C | 68% | 939.3 hPa | 0 mm | 0.45 m/s, 327° | 12 W/m² | - |
| 1777983610 | 21.67° C | 68% | 939.3 hPa | 0 mm | 0.45 m/s, 327° | 11 W/m² | - |
| 1777983550 | 21.67° C | 68% | 939.2 hPa | 0 mm | 0.45 m/s, 305° | 10 W/m² | - |
| 1777983491 | 21.67° C | 68% | 939.2 hPa | 0 mm | 0.45 m/s, 319° | 9 W/m² | - |
| 1777983430 | 21.67° C | 67% | 939.2 hPa | 0 mm | 0.45 m/s, 305° | 8 W/m² | - |
| 1777983370 | 21.67° C | 67% | 939.2 hPa | 0 mm | 0.45 m/s, 240° | 8 W/m² | - |
| 1777983311 | 21.67° C | 67% | 939.2 hPa | 0 mm | 0.45 m/s, 240° | 7 W/m² | - |
* Rain latest hour (hover to see other rain measurements)
** Current wind speed in m/s (hover to see current wind gust speed)